User: anonymous   Login
Location: Hartman Creek State Park
(44.3257°N, 89.2134°W)
Time: 01:17:49
(UTC-05:00)
Language:

Cosmos 2263 Rocket - Orbit

View from above orbital plane
View from above orbital plane
View from above satellite
View from above satellite

Ground track
Ground track

The orbit data is extracted from the following two-line orbital elements,

1 22803U 93059B   16237.33349740 -.00000142  00000-0 -46880-4 0  9992
2 22803  70.9908 154.9665 0015271 121.7068 238.5546 14.16748627186236
Epoch (UTC): 24 August 2016 08:00:14
Eccentricity: 0.0015271
inclination: 70.9908°
perigee height: 825 km
apogee height: 847 km
right ascension of ascending node: 154.9665°
argument of perigee: 121.7068°
revolutions per day: 14.16748627
mean anomaly at epoch: 238.5546°
orbit number at epoch: 18623

The dashed part of the orbit path shows where the satellite is in the earth's shadow,  

DLR